CZ-6A DEB, 55521

Orbit data source: Space-Track

CZ-6A DEB, 55521 is space debris in SSO originally from a launch on Fri, 11 Nov 2022 UTC launched from the Taiyaun Space Center, China (TSC). Debris objects in space refer to the collection of defunct objects orbiting the Earth. Examples of debris include non-operational satellites, rocket bodies, and fragments generated from explosions, collisions, or faulty payload assembly.

Loading next visibility...
Identifier
55521, 2022-151XT
Orbit
SSO
Country
Flag of CNCN / PRC
Related business
Manufacturer
SAST
Mission
Spacecraft
Bus & Motor
Unknown
Mass
Unknown
Launch date (UTC)
2022-11-11 (4 years ago)
Launch vehicle
Unknown
Launch site
Taiyaun Space Center, China (TSC)
Object type
Payload
Rocket body
Debris
Shape & HBR
Unknown shape, 0.1 m
Radar Cross Section
Medium (>0.1 m² and <1 m²)

Expand to show TLE details & history
Last TLE update: 16 hours ago

TLE from 16 hours ago
0 CZ-6A DEB
1 55521U 22151XT  26262.93440894  .00000322  00000-0  20889-3 0  9995
2 55521  98.8690 259.1594 0057486  78.8086 281.9539 14.08642376192877
Epoch: 2026-09-19T22:25Z
TLE epoch observation values (Epoch: 2026-09-19T22:25:32.932Z)
Latitude
0.00002°
Longitude
-76.06364°
Altitude
858.52 km
Speed
7.428 km/s
True Right ascension
17h 16m 38s
True Declination
0° 00' 00"
Sunlit
Object was in daylight at epoch
Visualization orbit readout
Latitude
Unknown
Longitude
Unknown
Altitude
Unknown
Speed
Unknown
Apparent Right ascension
Unknown
Apparent Declination
Unknown
Sunlit
N/A
Visualization observer readout
Local Sidereal Time
07:00:46
Azimuth
Unknown
Elevation
Unknown
Doppler factor
Unknown
Orbital elements
Apogee altitude
902.819 km
Perigee altitude
819.586 km
Semi-major axis
7,239.34 km
Eccentricity
0.00575
Inclination
98.869°
RAAN
259.1594°
Arg. of periapsis
78.8086°
True anomaly
281.3085°
Mean anomaly
281.9539°
Eccentric anomaly
281.63129°
Mean motion
3.52367 °/min
Orbital period
102.17 mins
BSTAR
0.00020889
Loading maneuver chart data...
Computing Atmospheric mass density...
Loading historical data...
Loading historical data...
Loading historical data...
Loading historical data...
Loading historical data...
Loading historical data...
Loading historical data...

Documentation

Showing up to 5 results
|